QPF
0.00 0.00 0.00 0.00 0.00 0.00 0.00 0.00 0.00 0.00 0.00 0.00 0.00 0.00 0.00 0.00 0.00 0.00 0.00 0.00 0.01 0.00 0.00 0.00 0.00 0.00 0.00 0.00 0.00 0.00 0.00 0.00 0.00 0.00 0.00 0.00 0.00 0.00 0.00 0.00 0.00 0.00 0.00
0.00 0.00 0.00 0.00 0.00 0.00 0.00 0.00 0.00 0.00 0.00 0.00 0.00 0.00 0.00 0.00 0.00 0.00 0.00 0.00 0.00 0.00 0.01 0.00 0.00 0.00 0.00 0.00 0.01 0.01 0.01 0.01 0.01 0.00 0.00 0.00 0.00 0.00 0.00 0.00 0.00 0.00 0.00
0.00 0.00 0.00 0.00 0.00 0.00 0.00 0.00 0.00 0.00 0.00 0.00 0.00 0.00 0.00 0.00 0.00 0.00 0.00 0.00 0.00 0.00 0.01 0.01 0.00 0.00 0.01 0.00 0.00 0.00 0.00 0.00 0.00 0.00 0.00 0.00 0.00 0.00 0.00 0.00 0.00 0.00 0.00
0.00 0.00 0.00 0.00 0.00 0.00 0.00 0.00 0.00 0.00 0.00 0.00 0.00 0.00 0.00 0.00 0.00 0.00 0.00 0.00 0.00 0.00 0.00 0.00 0.00 0.00 0.00 0.00 0.00 0.00 0.00 0.00 0.00 0.00 0.00 0.00 0.00 0.00 0.00 0.00 0.00 0.00 0.00
0.01 0.00 0.00 0.00 0.00 0.00 0.00 0.00 0.00 0.00 0.00 0.00 0.00 0.00 0.00 0.00 0.00 0.00 0.00 0.00 0.00 0.00 0.00 0.00 0.00 0.00 0.00 0.00 0.00 0.00 0.00 0.00 0.00 0.00 0.00 0.00 0.00 0.00 0.00 0.00 0.00 0.00 0.00
0.02 0.00 0.00 0.00 0.00 0.00 0.00 0.00 0.00 0.00 0.00 0.00 0.00 0.00 0.00 0.00 0.00 0.00 0.00 0.00 0.00 0.00 0.00 0.00 0.00 0.00 0.00 0.00 0.00 0.00 0.00 0.00 0.00 0.00 0.00 0.00 0.00 0.00 0.00 0.00 0.00 0.00 0.00
0.02 0.01 0.00 0.00 0.00 0.00 0.00 0.00 0.00 0.00 0.00 0.00 0.00 0.00 0.00 0.00 0.00 0.00 0.00 0.00 0.00 0.00 0.00 0.00 0.00 0.00 0.00 0.00 0.00 0.00 0.00 0.00 0.00 0.00 0.00 0.00 0.00 0.00 0.00 0.00 0.00 0.00 0.00
0.01 0.01 0.00 0.00 0.00 0.00 0.00 0.00 0.00 0.00 0.00 0.00 0.00 0.00 0.00 0.00 0.00 0.00 0.00 0.00 0.00 0.00 0.00 0.00 0.00 0.00 0.00 0.00 0.00 0.00 0.00 0.00 0.00 0.00 0.00 0.00 0.00 0.00 0.00 0.00 0.00 0.00 0.00
0.00 0.00 0.00 0.00 0.00 0.00 0.00 0.00 0.00 0.00 0.00 0.00 0.00 0.00 0.00 0.00 0.00 0.00 0.00 0.00 0.00 0.00 0.00 0.00 0.00 0.00 0.00 0.00 0.00 0.00 0.00 0.00 0.00 0.00 0.00 0.00 0.00 0.00 0.00 0.00 0.00 0.00 0.00
0.00 0.00 0.00 0.00 0.00 0.00 0.00 0.00 0.00 0.00 0.00 0.00 0.00 0.00 0.00 0.00 0.00 0.00 0.00 0.00 0.00 0.00 0.00 0.00 0.00 0.00 0.00 0.00 0.00 0.00 0.00 0.00 0.00 0.00 0.00 0.00 0.00 0.00 0.00 0.00 0.00 0.00 0.00
0.00 0.00 0.00 0.00 0.00 0.00 0.00 0.00 0.00 0.00 0.00 0.00 0.00 0.00 0.00 0.00 0.00 0.00 0.00 0.00 0.00 0.00 0.00 0.00 0.00 0.00 0.00 0.00 0.00 0.00 0.00 0.00 0.00 0.00 0.00 0.00 0.00 0.00 0.00 0.00 0.00 0.00 0.00
0.00 0.00 0.00 0.00 0.00 0.00 0.00 0.00 0.00 0.00 0.00 0.00 0.00 0.00 0.00 0.00 0.00 0.00 0.00 0.00 0.00 0.00 0.00 0.00 0.00 0.00 0.00 0.00 0.00 0.00 0.00 0.00 0.00 0.00 0.00 0.00 0.00 0.00 0.00 0.00 0.00 0.00 0.00
0.00 0.00 0.00 0.00 0.00 0.00 0.00 0.00 0.00 0.00 0.00 0.00 0.00 0.00 0.00 0.00 0.00 0.00 0.00 0.00 0.00 0.00 0.00 0.00 0.00 0.00 0.00 0.00 0.00 0.00 0.00 0.00 0.00 0.00 0.00 0.00 0.00 0.00 0.00 0.00 0.00 0.00 0.00
0.00 0.00 0.00 0.00 0.00 0.00 0.00 0.00 0.00 0.00 0.00 0.00 0.00 0.00 0.00 0.00 0.00 0.00 0.00 0.00 0.00 0.00 0.00 0.00 0.00 0.00 0.00 0.00 0.00 0.00 0.00 0.00 0.00 0.00 0.00 0.00 0.00 0.00 0.00 0.00 0.00 0.00 0.00
0.00 0.00 0.00 0.00 0.00 0.00 0.00 0.00 0.00 0.00 0.00 0.00 0.00 0.00 0.00 0.00 0.00 0.00 0.00 0.00 0.00 0.00 0.00 0.00 0.00 0.00 0.00 0.00 0.00 0.00 0.00 0.00 0.00 0.00 0.00 0.00 0.00 0.00 0.00 0.00 0.00 0.00 0.00
0.00 0.00 0.00 0.00 0.00 0.00 0.00 0.00 0.00 0.00 0.00 0.00 0.00 0.00 0.00 0.00 0.00 0.00 0.00 0.00 0.00 0.00 0.00 0.00 0.00 0.00 0.00 0.00 0.00 0.00 0.00 0.00 0.00 0.00 0.00 0.00 0.00 0.00 0.00 0.00 0.00 0.00 0.00
0.00 0.00 0.00 0.00 0.00 0.00 0.00 0.00 0.00 0.00 0.00 0.00 0.00 0.00 0.00 0.00 0.00 0.00 0.00 0.00 0.00 0.00 0.00 0.00 0.00 0.00 0.00 0.00 0.00 0.00 0.00 0.00 0.00 0.00 0.00 0.00 0.00 0.00 0.00 0.00 0.00 0.00 0.00
0.00 0.00 0.00 0.00 0.00 0.00 0.00 0.00 0.00 0.00 0.00 0.00 0.00 0.00 0.00 0.00 0.00 0.00 0.00 0.00 0.00 0.00 0.00 0.00 0.00 0.00 0.00 0.00 0.00 0.00 0.00 0.00 0.00 0.00 0.00 0.00 0.00 0.00 0.00 0.00 0.00 0.00 0.00
0.00 0.00 0.00 0.00 0.00 0.00 0.00 0.00 0.00 0.00 0.00 0.00 0.00 0.00 0.00 0.00 0.00 0.00 0.00 0.00 0.00 0.00 0.00 0.00 0.00 0.00 0.00 0.00 0.00 0.00 0.00 0.00 0.00 0.00 0.00 0.00 0.00 0.00 0.00 0.00 0.00 0.00 0.00
0.00 0.00 0.00 0.00 0.00 0.00 0.00 0.00 0.00 0.00 0.00 0.00 0.00 0.00 0.00 0.00 0.00 0.00 0.00 0.00 0.00 0.00 0.00 0.00 0.00 0.00 0.00 0.00 0.00 0.00 0.00 0.00 0.00 0.00 0.00 0.00 0.00 0.00 0.00 0.00 0.00 0.00 0.00
0.00 0.00 0.00 0.00 0.00 0.00 0.00 0.00 0.00 0.00 0.00 0.00 0.00 0.00 0.00 0.00 0.00 0.00 0.00 0.00 0.00 0.00 0.00 0.00 0.00 0.00 0.00 0.00 0.00 0.00 0.00 0.00 0.00 0.00 0.00 0.00 0.00 0.00 0.00 0.00 0.00 0.00 0.00
0.00 0.00 0.00 0.00 0.00 0.00 0.00 0.00 0.00 0.00 0.00 0.00 0.00 0.00 0.00 0.00 0.00 0.00 0.00 0.00 0.00 0.00 0.00 0.00 0.00 0.00 0.00 0.00 0.00 0.00 0.00 0.00 0.00 0.00 0.00 0.00 0.00 0.00 0.00 0.00 0.00 0.00 0.00
0.00 0.00 0.00 0.00 0.00 0.00 0.00 0.00 0.00 0.00 0.00 0.00 0.00 0.00 0.00 0.00 0.00 0.00 0.00 0.00 0.00 0.00 0.00 0.00 0.00 0.00 0.00 0.00 0.00 0.00 0.00 0.00 0.00 0.00 0.00 0.00 0.00 0.00 0.00 0.00 0.00 0.00 0.00
0.00 0.00 0.00 0.00 0.00 0.00 0.00 0.00 0.00 0.00 0.00 0.00 0.00 0.00 0.00 0.00 0.00 0.00 0.00 0.00 0.00 0.00 0.00 0.00 0.00 0.00 0.00 0.00 0.00 0.00 0.00 0.00 0.00 0.00 0.00 0.00 0.00 0.00 0.00 0.00 0.00 0.00 0.00
0.00 0.00 0.00 0.00 0.00 0.00 0.00 0.00 0.00 0.00 0.00 0.00 0.00 0.00 0.00 0.00 0.00 0.00 0.00 0.00 0.00 0.00 0.00 0.00 0.00 0.00 0.00 0.00 0.00 0.00 0.00 0.00 0.00 0.00 0.00 0.00 0.00 0.00 0.00 0.00 0.00 0.00 0.00
0.00 0.00 0.00 0.00 0.00 0.00 0.00 0.00 0.00 0.00 0.00 0.00 0.00 0.00 0.00 0.00 0.00 0.00 0.00 0.00 0.00 0.00 0.00 0.00 0.00 0.00 0.00 0.00 0.00 0.00 0.00 0.00 0.00 0.00 0.00 0.00 0.00 0.00 0.00 0.00 0.00 0.00 0.00
MSLP
1014.76 1015.32 1015.54 1015.52 1016.03 1016.38 1017.01 1017.76 1018.58 1019.05 1019.40 1019.65 1019.94 1020.06 1020.51 1020.79 1020.79 1020.71 1020.82 1020.80 1020.93 1021.09 1021.23 1021.42 1021.58 1021.73 1021.96 1022.11 1022.30 1022.40 1022.53 1022.65 1022.69 1022.66 1022.56 1022.59 1022.56 1022.41 1022.35 1022.25 1022.20 1022.02 1021.75
1014.22 1014.86 1015.53 1015.34 1016.16 1016.39 1017.22 1017.83 1018.59 1019.18 1019.47 1019.81 1020.36 1020.51 1020.83 1021.05 1021.17 1021.28 1021.38 1021.28 1021.33 1021.32 1021.44 1021.61 1021.75 1021.94 1022.21 1022.38 1022.47 1022.66 1022.85 1022.96 1023.01 1023.05 1023.04 1023.02 1022.98 1023.01 1022.87 1022.65 1022.60 1022.47 1022.23
1013.69 1014.42 1015.17 1015.54 1016.00 1016.56 1017.21 1017.90 1018.66 1019.19 1019.58 1019.96 1020.62 1021.01 1021.22 1021.33 1021.67 1021.90 1021.94 1021.97 1021.93 1021.73 1021.70 1021.90 1022.17 1022.28 1022.42 1022.65 1022.76 1022.96 1023.24 1023.36 1023.45 1023.53 1023.50 1023.49 1023.43 1023.30 1023.17 1022.96 1022.91 1022.80 1022.68
1012.82 1013.94 1014.77 1015.31 1015.87 1016.44 1017.12 1017.78 1018.52 1019.17 1019.62 1020.24 1020.86 1021.37 1021.66 1021.68 1022.12 1022.31 1022.43 1022.51 1022.51 1022.42 1022.29 1022.33 1022.41 1022.65 1022.75 1022.92 1023.13 1023.37 1023.57 1023.74 1023.81 1023.86 1023.89 1023.89 1023.77 1023.61 1023.40 1023.31 1023.25 1023.15 1022.95
1012.22 1013.09 1014.10 1014.77 1015.54 1016.12 1016.99 1017.71 1018.46 1018.81 1019.64 1020.44 1021.03 1021.65 1021.94 1022.20 1022.46 1022.76 1022.98 1023.01 1023.01 1022.90 1023.08 1023.19 1023.26 1023.24 1023.44 1023.53 1023.62 1023.80 1023.92 1023.95 1023.94 1023.90 1023.96 1024.00 1023.97 1023.83 1023.72 1023.72 1023.73 1023.63 1023.46
1012.03 1012.28 1013.28 1014.29 1015.11 1015.88 1016.78 1017.51 1018.22 1018.84 1019.43 1020.24 1021.23 1022.25 1022.52 1022.66 1022.86 1023.13 1023.39 1023.48 1023.60 1023.58 1023.63 1023.88 1024.04 1024.08 1024.05 1024.17 1024.12 1024.22 1024.21 1024.28 1024.21 1024.14 1024.13 1024.14 1024.19 1024.15 1024.12 1024.13 1024.09 1024.00 1023.89
1012.80 1012.93 1012.40 1013.68 1014.58 1015.42 1016.14 1017.05 1017.93 1018.68 1019.68 1020.21 1021.36 1022.82 1023.30 1023.32 1023.48 1023.66 1023.71 1023.90 1024.08 1024.24 1024.24 1024.38 1024.53 1024.78 1024.76 1024.82 1024.77 1024.69 1024.55 1024.55 1024.53 1024.50 1024.43 1024.43 1024.46 1024.49 1024.46 1024.36 1024.27 1024.16 1023.99
1013.36 1013.09 1013.06 1013.12 1014.08 1015.08 1015.90 1016.65 1017.19 1018.25 1019.41 1019.80 1020.39 1022.06 1023.63 1024.10 1023.94 1024.05 1024.17 1024.16 1024.43 1024.58 1024.75 1024.86 1025.12 1025.36 1025.52 1025.60 1025.49 1025.32 1025.08 1024.89 1024.76 1024.81 1024.72 1024.69 1024.69 1024.75 1024.69 1024.64 1024.52 1024.42 1024.30
1012.09 1013.17 1013.04 1013.75 1013.84 1014.39 1015.23 1015.88 1016.59 1017.06 1018.21 1019.43 1019.46 1020.13 1022.56 1023.18 1023.72 1024.17 1024.26 1024.41 1024.62 1024.79 1025.11 1025.20 1025.41 1025.61 1025.82 1026.01 1026.06 1025.92 1025.70 1025.40 1025.13 1024.97 1024.97 1024.92 1024.99 1025.01 1024.94 1024.83 1024.67 1024.56 1024.58
1009.81 1011.21 1013.33 1013.45 1013.40 1014.23 1014.67 1015.34 1015.98 1016.56 1017.39 1018.54 1019.32 1019.51 1019.93 1020.91 1022.80 1024.20 1024.36 1024.46 1024.65 1024.88 1025.13 1025.47 1025.48 1025.67 1025.87 1026.12 1026.21 1026.08 1026.03 1025.82 1025.53 1025.25 1025.18 1025.16 1025.19 1025.27 1025.14 1024.99 1024.84 1024.70 1024.70
1009.29 1010.13 1012.33 1013.12 1012.83 1013.70 1014.46 1014.93 1015.55 1016.16 1016.76 1017.52 1018.29 1019.45 1020.12 1020.64 1021.32 1022.43 1023.91 1024.45 1024.76 1024.86 1025.00 1025.26 1025.65 1025.74 1025.93 1026.20 1026.30 1026.11 1026.06 1026.07 1025.89 1025.64 1025.36 1025.26 1025.30 1025.50 1025.48 1025.33 1025.14 1024.91 1024.85
1009.38 1008.53 1011.67 1012.94 1012.54 1013.06 1013.83 1014.54 1015.05 1015.80 1016.20 1016.88 1017.81 1018.65 1019.22 1020.05 1020.95 1021.56 1022.91 1024.01 1024.57 1024.97 1025.14 1025.26 1025.61 1025.84 1026.00 1026.20 1026.16 1026.04 1026.07 1026.20 1026.08 1025.86 1025.72 1025.47 1025.51 1025.74 1025.66 1025.57 1025.45 1025.33 1025.00
1009.67 1009.69 1009.89 1011.94 1012.53 1012.61 1013.20 1013.97 1014.62 1015.34 1015.85 1016.51 1017.09 1018.03 1018.58 1019.11 1019.76 1020.80 1021.75 1023.31 1024.21 1024.93 1025.16 1025.32 1025.41 1025.75 1025.90 1026.20 1026.27 1026.35 1026.12 1026.38 1026.24 1026.06 1025.87 1025.70 1025.81 1026.06 1025.98 1025.76 1025.54 1025.55 1025.45
1009.55 1009.61 1010.45 1011.57 1011.56 1012.03 1012.68 1013.49 1014.13 1014.81 1015.53 1016.31 1017.00 1017.57 1018.31 1018.85 1019.21 1019.82 1020.94 1022.28 1024.09 1024.70 1024.96 1025.05 1025.32 1025.66 1025.81 1025.98 1026.11 1026.30 1026.30 1026.39 1026.28 1026.16 1026.07 1025.95 1025.93 1026.01 1026.00 1025.87 1025.82 1025.66 1025.68
1009.05 1009.54 1010.38 1011.00 1011.18 1011.29 1012.37 1013.23 1013.82 1014.49 1015.27 1016.01 1016.69 1017.29 1017.95 1018.68 1019.01 1019.49 1020.02 1020.97 1022.08 1024.19 1024.75 1024.95 1025.20 1025.37 1025.73 1025.88 1026.03 1026.26 1026.40 1026.36 1026.30 1026.25 1026.04 1026.13 1026.02 1025.89 1025.89 1025.61 1025.82 1025.52 1025.52
1008.80 1009.46 1009.86 1010.28 1011.34 1011.64 1012.15 1012.83 1013.61 1014.35 1015.09 1015.84 1016.53 1017.21 1017.80 1018.38 1018.90 1019.41 1019.90 1020.53 1021.22 1022.21 1024.07 1024.56 1025.02 1025.24 1025.57 1025.76 1026.01 1026.21 1026.38 1026.38 1026.37 1026.22 1025.92 1025.97 1026.07 1025.89 1025.72 1025.33 1025.62 1025.41 1025.33
1008.16 1008.61 1009.15 1009.88 1010.73 1011.44 1011.85 1012.66 1013.36 1014.22 1014.91 1015.65 1016.36 1016.91 1017.54 1018.04 1018.72 1019.25 1019.75 1020.34 1021.07 1021.62 1023.16 1024.65 1024.81 1025.29 1025.73 1025.88 1026.03 1026.22 1026.25 1026.43 1026.60 1026.12 1026.07 1025.95 1026.01 1025.98 1025.65 1025.52 1025.81 1025.56 1025.34
1007.30 1007.94 1008.69 1009.50 1010.40 1010.87 1011.57 1012.35 1013.05 1013.85 1014.59 1015.33 1016.07 1016.65 1017.27 1017.98 1018.58 1019.09 1019.60 1020.16 1020.63 1021.22 1022.15 1023.93 1024.76 1025.19 1025.57 1025.88 1026.13 1026.27 1026.15 1026.30 1026.45 1026.23 1026.22 1025.97 1026.09 1025.98 1025.78 1025.71 1025.84 1025.59 1025.28
1006.82 1007.76 1008.45 1009.32 1009.78 1010.45 1011.34 1011.93 1012.34 1013.13 1013.94 1014.60 1015.28 1015.92 1016.75 1017.55 1018.46 1018.94 1019.42 1020.10 1020.61 1021.08 1021.45 1022.47 1024.23 1024.81 1025.44 1025.88 1026.35 1026.20 1026.50 1026.50 1026.34 1026.16 1026.14 1026.12 1026.02 1025.97 1025.94 1025.96 1025.82 1025.70 1025.42
1006.64 1007.45 1007.87 1008.71 1009.18 1010.08 1010.74 1011.44 1012.09 1012.46 1013.31 1013.95 1014.54 1015.17 1015.96 1016.62 1017.61 1018.48 1019.28 1019.89 1020.47 1021.12 1021.79 1022.69 1023.64 1024.73 1025.40 1025.95 1025.86 1026.48 1026.70 1026.39 1026.45 1026.23 1026.38 1026.16 1025.99 1025.84 1025.86 1025.90 1025.84 1025.84 1025.51
1006.27 1006.67 1007.68 1008.48 1009.36 1009.88 1010.37 1010.99 1011.63 1012.47 1013.20 1013.97 1014.53 1014.94 1015.63 1016.21 1016.88 1017.55 1018.45 1019.54 1020.19 1020.94 1021.86 1022.94 1023.92 1024.65 1025.33 1025.79 1026.35 1026.33 1026.30 1026.59 1026.54 1026.60 1026.51 1026.47 1025.99 1026.00 1025.74 1025.77 1025.85 1025.55 1025.08
1005.86 1006.80 1007.28 1008.02 1008.79 1009.43 1010.08 1010.80 1011.37 1012.25 1013.19 1013.85 1014.66 1015.45 1016.20 1016.89 1017.56 1018.19 1018.65 1019.33 1019.78 1020.55 1021.70 1022.68 1023.57 1024.26 1025.22 1025.59 1026.04 1026.32 1026.58 1026.72 1026.81 1026.60 1026.52 1026.25 1026.06 1025.95 1025.79 1025.79 1025.65 1025.16 1024.62
1005.97 1006.61 1007.19 1007.99 1008.54 1009.09 1009.59 1010.36 1011.18 1012.16 1012.80 1013.48 1014.33 1015.42 1016.53 1017.24 1017.87 1018.48 1019.20 1019.73 1020.16 1020.80 1021.21 1021.89 1022.84 1023.96 1024.60 1024.91 1025.54 1026.19 1026.32 1026.50 1026.40 1026.33 1026.54 1026.50 1026.05 1025.84 1025.65 1025.48 1025.28 1024.77 1024.37
1006.12 1006.62 1007.24 1007.72 1008.43 1009.04 1009.49 1010.17 1010.97 1012.15 1013.11 1013.83 1014.47 1015.13 1015.96 1017.11 1017.92 1018.67 1019.41 1020.33 1020.93 1021.23 1021.79 1022.15 1022.69 1023.39 1023.80 1024.23 1024.86 1025.14 1025.61 1026.07 1026.24 1026.52 1026.44 1026.54 1026.07 1025.98 1025.43 1024.95 1024.72 1024.71 1024.48
1006.34 1006.79 1006.89 1007.60 1008.21 1008.76 1009.31 1009.91 1011.16 1012.13 1013.20 1014.15 1014.90 1015.62 1016.23 1017.12 1018.04 1018.84 1019.61 1020.69 1021.35 1021.87 1021.88 1022.37 1023.06 1023.30 1023.57 1023.91 1024.60 1025.24 1025.39 1026.11 1026.16 1026.44 1026.41 1026.41 1026.10 1025.99 1025.55 1024.66 1024.60 1024.29 1024.21
1006.67 1006.86 1007.38 1007.57 1007.95 1008.62 1009.39 1010.00 1010.81 1012.11 1013.34 1014.14 1015.08 1016.14 1016.55 1017.22 1018.36 1019.12 1019.97 1020.73 1021.64 1021.82 1022.32 1022.92 1023.65 1023.57 1023.78 1024.22 1024.58 1024.98 1025.38 1025.87 1026.36 1026.17 1026.05 1026.28 1026.09 1026.24 1025.84 1024.88 1024.60 1024.41 1024.38
Thickness
5664 5664 5667 5670 5671 5672 5672 5672 5671 5671 5670 5669 5670 5671 5670 5669 5670 5671 5672 5672 5673 5673 5673 5672 5671 5670 5668 5666 5664 5663 5661 5658 5657 5656 5654 5652 5650 5648 5646 5644 5642 5641 5640
5659 5659 5659 5663 5662 5665 5665 5665 5665 5665 5663 5663 5662 5663 5662 5663 5663 5664 5665 5667 5667 5668 5668 5667 5667 5665 5663 5662 5660 5658 5655 5652 5651 5649 5647 5645 5643 5641 5640 5638 5636 5635 5633
5654 5653 5653 5654 5656 5656 5658 5658 5658 5659 5658 5656 5655 5655 5655 5656 5655 5656 5657 5659 5661 5662 5662 5662 5660 5660 5659 5656 5654 5652 5649 5646 5644 5642 5641 5639 5637 5635 5634 5632 5629 5628 5626
5651 5648 5648 5648 5649 5648 5649 5650 5653 5653 5653 5650 5647 5647 5647 5648 5647 5648 5649 5651 5653 5655 5655 5655 5654 5653 5652 5650 5647 5644 5642 5639 5637 5635 5632 5630 5629 5628 5627 5625 5622 5620 5618
5645 5645 5644 5643 5642 5641 5641 5642 5644 5648 5646 5642 5640 5637 5640 5640 5639 5639 5640 5642 5644 5647 5646 5645 5644 5644 5642 5640 5639 5636 5634 5632 5631 5630 5627 5624 5622 5620 5618 5616 5613 5610 5608
5636 5640 5638 5636 5635 5634 5633 5634 5636 5638 5639 5636 5632 5625 5628 5630 5632 5632 5632 5633 5634 5636 5637 5635 5635 5633 5632 5631 5630 5628 5626 5624 5624 5622 5620 5617 5614 5611 5609 5606 5602 5600 5597
5618 5622 5633 5630 5628 5629 5630 5629 5628 5629 5627 5629 5623 5615 5615 5619 5621 5623 5624 5624 5624 5624 5626 5626 5626 5624 5622 5620 5620 5619 5618 5616 5615 5614 5612 5609 5606 5602 5600 5597 5594 5591 5589
5595 5597 5613 5620 5621 5620 5620 5621 5625 5623 5619 5623 5625 5613 5602 5605 5611 5613 5614 5615 5615 5615 5616 5617 5615 5614 5612 5611 5609 5608 5608 5607 5606 5604 5603 5601 5597 5594 5592 5588 5586 5582 5578
5589 5589 5599 5601 5608 5613 5615 5617 5619 5624 5621 5616 5623 5622 5601 5604 5603 5603 5606 5606 5606 5607 5606 5606 5606 5605 5603 5600 5599 5598 5597 5597 5597 5596 5594 5592 5588 5584 5581 5578 5575 5571 5566
5593 5596 5582 5587 5601 5600 5606 5610 5613 5615 5615 5612 5612 5617 5617 5614 5601 5594 5597 5599 5599 5599 5597 5595 5597 5596 5594 5592 5590 5588 5587 5586 5587 5586 5583 5582 5578 5572 5570 5567 5564 5560 5555
5585 5591 5574 5575 5592 5593 5595 5601 5604 5608 5610 5611 5613 5605 5606 5606 5605 5599 5589 5588 5588 5589 5590 5589 5587 5587 5585 5583 5580 5579 5578 5576 5575 5574 5573 5571 5567 5561 5557 5554 5551 5547 5544
5570 5588 5569 5564 5579 5588 5590 5594 5599 5600 5604 5607 5604 5603 5605 5604 5600 5596 5585 5580 5582 5580 5580 5581 5578 5577 5576 5574 5572 5571 5569 5565 5564 5562 5559 5559 5555 5549 5544 5540 5536 5532 5530
5558 5566 5574 5565 5568 5581 5585 5587 5592 5594 5598 5600 5602 5599 5599 5599 5598 5593 5590 5577 5574 5570 5571 5571 5570 5567 5566 5564 5562 5560 5559 5555 5552 5550 5547 5544 5539 5532 5528 5526 5523 5519 5514
5549 5557 5556 5556 5565 5572 5578 5581 5587 5589 5591 5591 5591 5592 5590 5590 5592 5591 5585 5576 5563 5563 5562 5564 5561 5559 5558 5556 5553 5549 5548 5543 5540 5538 5534 5531 5526 5521 5517 5513 5509 5505 5500
5546 5548 5548 5552 5559 5565 5568 5571 5578 5581 5581 5581 5582 5583 5583 5581 5582 5582 5581 5577 5570 5556 5554 5553 5553 5551 5547 5546 5542 5540 5536 5531 5528 5525 5523 5518 5513 5510 5504 5503 5496 5494 5490
5542 5538 5542 5547 5546 5553 5558 5564 5568 5570 5571 5570 5570 5571 5572 5572 5573 5572 5571 5569 5566 5562 5549 5546 5543 5542 5538 5536 5532 5529 5524 5520 5515 5513 5511 5505 5500 5497 5493 5492 5485 5482 5478
5538 5544 5542 5542 5541 5544 5550 5552 5557 5559 5562 5562 5560 5563 5564 5564 5562 5562 5561 5560 5557 5555 5544 5533 5533 5529 5526 5524 5521 5516 5513 5508 5503 5499 5495 5492 5488 5483 5481 5478 5471 5470 5468
5538 5542 5539 5536 5535 5541 5544 5545 5549 5552 5554 5554 5554 5556 5556 5554 5553 5552 5552 5551 5549 5545 5540 5528 5522 5518 5514 5512 5506 5503 5500 5493 5489 5485 5482 5480 5474 5471 5469 5465 5460 5458 5455
5536 5533 5533 5530 5533 5536 5537 5540 5543 5545 5547 5548 5549 5550 5548 5546 5542 5542 5541 5538 5537 5536 5535 5529 5512 5508 5503 5498 5492 5488 5483 5481 5477 5474 5471 5466 5462 5458 5454 5449 5446 5441 5440
5535 5530 5533 5531 5532 5529 5532 5533 5534 5538 5538 5541 5544 5546 5544 5543 5538 5535 5531 5529 5527 5523 5519 5514 5507 5498 5490 5482 5480 5474 5469 5468 5464 5462 5457 5453 5450 5446 5442 5435 5430 5425 5422
5531 5532 5529 5527 5525 5526 5527 5529 5530 5529 5528 5527 5530 5534 5534 5534 5531 5530 5525 5518 5514 5510 5506 5498 5491 5484 5477 5469 5465 5462 5460 5454 5452 5450 5445 5439 5439 5434 5431 5424 5417 5414 5412
5528 5526 5529 5526 5525 5526 5525 5525 5524 5522 5521 5521 5520 5518 5516 5513 5513 5513 5512 5508 5505 5500 5492 5487 5481 5475 5461 5458 5453 5450 5444 5440 5438 5436 5431 5426 5426 5420 5416 5410 5404 5402 5400
5522 5524 5522 5521 5522 5523 5525 5523 5520 5515 5515 5516 5514 5509 5504 5503 5501 5499 5496 5493 5492 5489 5485 5479 5469 5460 5454 5452 5444 5437 5434 5429 5427 5426 5420 5410 5411 5408 5403 5397 5392 5389 5387
5512 5514 5513 5514 5515 5515 5517 5517 5514 5508 5505 5503 5502 5501 5498 5492 5487 5484 5482 5476 5474 5472 5466 5462 5459 5452 5448 5444 5436 5433 5427 5420 5415 5408 5408 5403 5399 5395 5390 5387 5384 5377 5372
5504 5503 5507 5507 5508 5507 5508 5508 5504 5500 5496 5491 5489 5487 5484 5480 5476 5472 5469 5462 5458 5452 5450 5447 5443 5440 5436 5431 5424 5419 5416 5407 5402 5396 5394 5391 5388 5386 5380 5378 5372 5367 5359
5495 5497 5495 5498 5501 5500 5497 5497 5497 5490 5483 5480 5476 5470 5471 5469 5462 5460 5454 5450 5439 5437 5435 5432 5427 5425 5422 5417 5412 5408 5402 5395 5388 5385 5384 5380 5374 5370 5371 5371 5357 5351 5344